Location: ??????????
(54.4061°N, 22.6114°E)
Time: 05:47:52
(UTC+00:00)

USA 238 - Pass Details

Date: 23 October 2019
Orbit: 1026 x 1186 km, 63.4° (Epoch: 11 November)

Event Time Altitude Azimuth Distance (km) Brightness Sun altitude
Rises 19:23:57 0° 264° (W) 3,821 7.2 -35.6°
Reaches altitude 10° 19:26:41 10° 270° (W) 2,887 6.5 -36.0°
Maximum altitude 19:33:14 46° 343° (NNW) 1,430 4.5 -36.7°
Enters shadow 19:33:40 46° 353° (N) 1,442 4.5 -36.8°
